Weather History for Canberra, CT

Change the Weather History Date:

Sunday, August 11, 2013

  Actual Average Record
Temperature  
Mean Temperature 44 °F -  
Max Temperature 59 °F 57 °F - ()
Min Temperature 28 °F 35 °F - ()
Degree Days  
Heating Degree Days 22    
Moisture  
Dew Point 37 °F    
Average Humidity 79    
Maximum Humidity 100    
Minimum Humidity 32    
Precipitation  
Precipitation 0.00 in 0.07 in - ()
Sea Level Pressure  
Sea Level Pressure 30.00 in    
Wind  
Wind Speed 7 mph ()    
Max Wind Speed 20 mph    
Max Gust Speed -    
Visibility 5.4 miles    
Events Fog    
T = Trace of Precipitation, MM = Missing Value Source: Averaged Metar Reports

Daily Weather History Graph

Daily Weather History Graph

Search for Another Location

Airport:

Trip Planner

Search our weather history database for the weather conditions in past years. The results will help you decide how hot, cold, wet, or windy it might be!

Date:

Astronomy

Aug. 11, 2013 Rise Set
Actual Time 6:48 AM EST 5:28 PM EST
Civil Twilight 6:22 AM EST 5:54 PM EST
Nautical Twilight 5:52 AM EST 6:24 PM EST
Astronomical Twilight 5:22 AM EST 6:54 PM EST
Moon 8:46 AM EST (8/11) 9:43 PM EST (8/11)
Length of Visible Light 11h 32m
Length of Day
10h 39m
Waxing Crescent, 17% of the Moon is Illuminated
Aug 11
Waxing Crescent
Aug 14
First Quarter
Aug 21
Full
Aug 28
Last Quarter
Sep 5
New

Hourly Weather History & Observations

Time (EST) Temp. Windchill Dew Point Humidity Pressure Visibility Wind Dir Wind Speed Gust Speed Precip Events Conditions
12:00 AM 40 °F - 37 °F 85% 30.09 in - NW 10.4 mph - -  
12:00 AM 41.0 °F 34.7 °F 37.4 °F 87% 30.06 in 6.2 mi NW 10.4 mph - N/A   Unknown
12:30 AM 39.2 °F 35.9 °F 35.6 °F 87% 30.06 in 6.2 mi North 4.6 mph - N/A   Unknown
1:00 AM 40 °F - 35 °F 76% 30.09 in - NNW 5.8 mph - -  
1:00 AM 39.2 °F 35.0 °F 35.6 °F 87% 30.06 in 6.2 mi NNW 5.8 mph - N/A   Unknown
1:30 AM 42.8 °F 39.3 °F 37.4 °F 81% 30.04 in 6.2 mi NNW 5.8 mph - N/A   Unknown
2:00 AM 39.2 °F 35.0 °F 37.4 °F 93% 30.04 in 6.2 mi North 5.8 mph - N/A   Unknown
2:30 AM 39.2 °F 35.9 °F 37.4 °F 93% 30.04 in 6.2 mi North 4.6 mph - N/A   Unknown
3:00 AM 38 °F - 36 °F 89% 30.07 in - East 3.5 mph - -  
3:00 AM 37.4 °F 34.9 °F 35.6 °F 93% 30.04 in 6.2 mi East 3.5 mph - N/A   Unknown
3:30 AM 33.8 °F 30.8 °F 32.0 °F 93% 30.04 in 6.2 mi SE 3.5 mph - N/A   Unknown
4:00 AM 33 °F - 32 °F 95% 30.06 in - SE 6.9 mph - -  
4:00 AM 32.0 °F 25.6 °F 32.0 °F 100% 30.04 in 6.2 mi SE 6.9 mph - N/A   Unknown
4:30 AM 32.0 °F - 30.2 °F 93% 30.04 in 6.2 mi SSE 2.3 mph - N/A   Unknown
5:00 AM 30.2 °F 25.4 °F 28.4 °F 93% 30.04 in 6.2 mi SSE 4.6 mph - N/A   Unknown
5:31 AM 30.2 °F 22.6 °F 30.2 °F 100% 30.04 in 6.2 mi ESE 8.1 mph - N/A   Mostly Cloudy
6:00 AM 32.0 °F 25.6 °F 32.0 °F 100% 30.04 in 6.2 mi SE 6.9 mph - N/A Fog Patches of Fog
6:30 AM 33.8 °F 28.6 °F 33.8 °F 100% 30.04 in 6.2 mi ESE 5.8 mph - N/A   Mostly Cloudy
7:00 AM 34 °F - 33 °F 96% 30.09 in - SE 6.9 mph - -  
7:00 AM 33.8 °F 27.7 °F 33.8 °F 100% 30.06 in 3.1 mi SE 6.9 mph - N/A Fog Patches of Fog
7:18 AM 33.8 °F 27.7 °F 32.0 °F 93% 30.06 in 5.0 mi SE 6.9 mph - N/A Fog Patches of Fog
7:30 AM 33.8 °F 28.6 °F 33.8 °F 100% 30.06 in 1.9 mi SE 5.8 mph - N/A Fog Patches of Fog
8:00 AM 35.6 °F 30.7 °F 35.6 °F 100% 30.06 in 1.2 mi ESE 5.8 mph - N/A   Mostly Cloudy
8:10 AM 35.6 °F 30.7 °F 35.6 °F 100% 30.06 in 0.6 mi SE 5.8 mph - N/A Fog Fog
8:18 AM 37.4 °F 33.8 °F 37.4 °F 100% 30.06 in 0.4 mi SSE 4.6 mph - N/A Fog Fog
8:30 AM 37.4 °F 33.8 °F 37.4 °F 100% 30.06 in 0.6 mi SSE 4.6 mph - N/A Fog Fog
8:37 AM 37.4 °F 33.8 °F 37.4 °F 100% 30.06 in 1.9 mi South 4.6 mph - N/A Fog Patches of Fog
8:49 AM 37.4 °F 33.8 °F 37.4 °F 100% 30.06 in 3.7 mi SSE 4.6 mph - N/A Fog Patches of Fog
9:00 AM 38 °F - 38 °F 100% 30.10 in - South 3.5 mph - -   Overcast
9:00 AM 39.2 °F 37.0 °F 39.2 °F 100% 30.06 in 3.7 mi South 3.5 mph - N/A Fog Patches of Fog
9:14 AM 39.2 °F - 39.2 °F 100% 30.06 in 3.7 mi South 1.2 mph - N/A Fog Patches of Fog
9:30 AM 39.2 °F 35.9 °F 39.2 °F 100% 30.06 in 6.2 mi NW 4.6 mph - N/A Fog Patches of Fog
9:49 AM 41.0 °F 39.0 °F 39.2 °F 93% 30.06 in 6.2 mi North 3.5 mph - N/A Fog Patches of Fog
10:00 AM 42 °F - 40 °F 88% 30.09 in - WNW 4.6 mph - -  
10:00 AM 42.8 °F 40.1 °F 39.2 °F 87% 30.06 in 6.2 mi WNW 4.6 mph - N/A Fog Patches of Fog
10:09 AM 41.0 °F 38.0 °F 39.2 °F 93% 30.04 in 6.2 mi WNW 4.6 mph - N/A Fog Patches of Fog
10:30 AM 44.6 °F 42.2 °F 41.0 °F 87% 30.04 in 6.2 mi WNW 4.6 mph - N/A Fog Partly Cloudy
11:00 AM 48.2 °F - 41.0 °F 76% 30.04 in 6.2 mi West 5.8 mph - N/A   Partly Cloudy
11:30 AM 53.6 °F - 41.0 °F 62% 30.01 in 6.2 mi West 6.9 mph - N/A   Partly Cloudy
12:00 PM 56 °F - 40 °F 44% 30.03 in - NW 10.4 mph - -  
12:00 PM 57.2 °F - 41.0 °F 55% 29.98 in 6.2 mi NW 10.4 mph - N/A   Partly Cloudy
12:30 PM 57.2 °F - 39.2 °F 51% 29.98 in 6.2 mi NW 15.0 mph - N/A   Partly Cloudy
1:00 PM 58 °F - 37 °F 33% 29.99 in - NW 13.8 mph - -  
1:00 PM 59.0 °F - 37.4 °F 45% 29.95 in 6.2 mi NW 13.8 mph - N/A   Partly Cloudy
1:30 PM 59.0 °F - 39.2 °F 48% 29.95 in 6.2 mi NNW 17.3 mph - N/A   Partly Cloudy
2:00 PM 59.0 °F - 39.2 °F 48% 29.95 in 6.2 mi NNW 17.3 mph - N/A   Partly Cloudy
2:30 PM 59.0 °F - 39.2 °F 48% 29.95 in 6.2 mi NW 17.3 mph - N/A   Partly Cloudy
3:00 PM 59 °F - 37 °F 32% 29.97 in - NW 19.6 mph - -  
3:00 PM 59.0 °F - 37.4 °F 45% 29.92 in 6.2 mi NW 19.6 mph - N/A   Partly Cloudy
3:30 PM 57.2 °F - 37.4 °F 48% 29.92 in 6.2 mi NW 19.6 mph - N/A   Partly Cloudy
4:00 PM 57 °F - 38 °F 37% 29.96 in - NW 18.4 mph - -  
4:00 PM 57.2 °F - 37.4 °F 48% 29.92 in 6.2 mi NW 18.4 mph - N/A   Partly Cloudy
4:30 PM 55.4 °F - 39.2 °F 54% 29.92 in 6.2 mi WNW 12.7 mph - N/A   Partly Cloudy
5:00 PM 53.6 °F - 37.4 °F 54% 29.92 in 6.2 mi WNW 12.7 mph - N/A   Partly Cloudy
5:30 PM 50.0 °F - 37.4 °F 62% 29.92 in 6.2 mi WNW 9.2 mph - N/A   Partly Cloudy
6:00 PM 49 °F - 38 °F 55% 29.96 in - NW 10.4 mph - -  
6:00 PM 48.2 °F - 37.4 °F 66% 29.92 in 6.2 mi NW 10.4 mph - N/A   Partly Cloudy
6:30 PM 46.4 °F 41.5 °F 39.2 °F 76% 29.92 in 6.2 mi North 10.4 mph - N/A   Unknown
7:00 PM 45 °F - 37 °F 66% 29.97 in - NNW 9.2 mph - -  
7:00 PM 44.6 °F 39.7 °F 37.4 °F 76% 29.92 in 6.2 mi NNW 9.2 mph - N/A   Unknown
7:30 PM 46.4 °F 41.9 °F 39.2 °F 76% 29.92 in 6.2 mi NW 9.2 mph - N/A   Unknown
8:00 PM 46.4 °F 42.4 °F 39.2 °F 76% 29.92 in 6.2 mi NW 8.1 mph - N/A   Unknown
8:30 PM 44.6 °F 41.4 °F 37.4 °F 76% 29.92 in 6.2 mi North 5.8 mph - N/A   Unknown
9:00 PM 44 °F - 37 °F 70% 29.96 in - North 2.3 mph - -  
9:00 PM 44.6 °F - 37.4 °F 76% 29.92 in 6.2 mi North 2.3 mph - N/A   Unknown
9:30 PM 42.8 °F 40.1 °F 37.4 °F 81% 29.92 in 6.2 mi NE 4.6 mph - N/A   Unknown
10:00 PM 41 °F - 37 °F 82% 29.95 in - NNE 4.6 mph - -  
10:00 PM 41.0 °F 38.0 °F 37.4 °F 87% 29.92 in 6.2 mi NNE 4.6 mph - N/A   Unknown
10:30 PM 39.2 °F 35.0 °F 35.6 °F 87% 29.89 in 6.2 mi NNE 5.8 mph - N/A   Unknown
11:00 PM 42.8 °F 41.1 °F 41.0 °F 93% 29.89 in 6.2 mi NNE 3.5 mph - N/A   Mostly Cloudy
11:30 PM 41.0 °F 39.0 °F 39.2 °F 93% 29.89 in 6.2 mi South 3.5 mph - N/A   Overcast